Hourly Data Report for July 08, 2021

MANIWAKI AIRPORT
QUEBEC
Current Station Operator: ECCC - MSC

46°16'29.000" N
75°59'31.000" W
199.70 m
7034482
71721
WMJ

Download Data

Hourly Data (July 2021)
Hourly Data Report for July 8, 2021
TIME
LST
Temp Definition
°C
Dew Point Definition
°C
Rel Hum Definition
%
Precip. Amount Definition
mm

Wind Dir Definition
10's deg

Wind Spd Definition
km/h
Visibility Definition
km
Stn Press Definition
kPa
Hmdx Definition


Wind Chill Definition


Weather Definition


00:00 12.9 6.6 65 0.0 1 7   99.38     LegendNANA
01:00 12.8 6.8 67 0.0 1 8   99.35     LegendNANA
02:00 12.5 6.7 68 0.0 36 8   99.36     LegendNANA
03:00 12.3 7.0 70 0.0 1 9   99.35     LegendNANA
04:00 12.1 7.0 71 0.0 1 10   99.33     LegendNANA
05:00 11.7 7.1 73 0.0 36 8   99.37     LegendNANA
06:00 12.6 7.8 73 0.0 1 7   99.38     LegendNANA
07:00 14.0 8.2 68 0.0 2 9   99.39     LegendNANA
08:00 16.5 8.8 60 0.0 8 8   99.34     LegendNANA
09:00 16.2 8.7 61 0.0 6 8   99.32     LegendNANA
10:00 17.3 9.3 59 0.0 7 10   99.28     LegendNANA
11:00 17.6 10.0 61 0.0 4 8   99.29     LegendNANA
12:00 17.6 12.5 72 0.0 4 9   99.20     LegendNANA
13:00 17.4 10.9 66 0.0 11 14   99.15     LegendNANA
14:00 15.0 12.8 87 1.0 8 5   99.14     LegendNANA
15:00 14.0 12.8 93 7.1 6 11   99.05     LegendNANA
16:00 13.1 12.1 94 2.1 4 9   99.02     LegendNANA
17:00 13.2 12.7 96 2.9 2 10   98.87     LegendNANA
18:00 13.0 12.3 96 0.6 1 12   98.79     LegendNANA
19:00 12.9 12.4 97 0.6 35 8   98.80     LegendNANA
20:00 12.8 12.4 97 2.5 35 12   98.71     LegendNANA
21:00 13.1 12.7 98 0.6 36 9   98.72     LegendNANA
22:00 13.2 12.6 96 0.0 35 10   98.72     LegendNANA
23:00 12.9 12.4 96 0.0 35 10   98.75     LegendNANA

Notes on Data Quality.

Legend

  • E = Estimated
  • M = Missing
  • NA = Not Available*
  • [empty] = Indicates an unobserved value
Date modified: